Regional Weather Roundup
Issued by NWS

Home | Current Version | Previous Version | Graphics & Text | Print | Product List | Glossary Off
Versions: 1 2 3 4 5 6 7 8 9 10 11 12 13 14 15 16 17 18 19 20 21 22 23 24 25 26 27 28 29 30 31 32 33 34 35 36 37 38 39 40 41 42 43 44 45 46 47 48 49 50

000
ASUS43 KMKX 210700
RWRWI

WISCONSIN REGIONAL WEATHER ROUNDUP
NATIONAL WEATHER SERVICE MILWAUKEE/SULLIVAN WI
100 AM CST SUN JAN 21 2018

NOTE: "FAIR" INDICATES FEW OR NO CLOUDS BELOW 12,000 FEET WITH NO
SIGNIFICANT WEATHER AND/OR OBSTRUCTIONS TO VISIBILITY.

WIZ001-002-006>008-014>016-023>028-210800-
NORTHWEST WISCONSIN

CITY           SKY/WX    TMP DP  RH WIND       PRES   REMARKS
SUPERIOR ARPT  FAIR      28  26  91 SW6       29.95R WCI  22
ASHLAND        FAIR      29  27  92 SW7       29.94S WCI  22
HAYWARD        FAIR      24  22  91 CALM      29.94R
SIREN          CLOUDY    30  29  95 CALM      29.96R
CUMBERLAND     CLOUDY    32  30  93 CALM      29.94S
RICE LAKE      FAIR      30  29  96 CALM      29.96R
CHETEK         NOT AVBL
LADYSMITH      CLOUDY    33  31  92 CALM      29.94F
EAU CLAIRE     NOT AVBL
MENOMONIE      FAIR      29  28  96 CALM      29.94F FOG
NEW RICHMOND   CLOUDY    31  30  93 CALM      29.95S
OSCEOLA        CLOUDY    32  32 100 CALM      29.98S
$$

WIZ003>005-009-010-017-018-210800-
NORTH CENTRAL WISCONSIN

CITY           SKY/WX    TMP DP  RH WIND       PRES   REMARKS
MANITOWISH WTR FAIR      23  23 100 CALM      29.92R
ARBOR VITAE    MOCLDY    27  26  95 CALM      29.92S FOG
WOODRUFF       MOCLDY    27  26  95 CALM      29.92S FOG
RHINELANDER    CLOUDY    32  30  92 W3        29.92S
EAGLE RIVER    FAIR      26  26 100 CALM      29.91S FOG
LAND O LAKES   FAIR      24  23  96 CALM      29.93R
PHILLIPS       CLOUDY    29  29 100 CALM      29.92S
TOMAHAWK       CLOUDY    31  29  94 CALM      29.93R
MEDFORD        CLOUDY    30  28  94 CALM      29.92S
MERRILL        CLOUDY    30  30  98 CALM      29.94S
$$

WIZ029-030-035-036-043>047-210800-
CENTRAL WISCONSIN

CITY           SKY/WX    TMP DP  RH WIND       PRES   REMARKS
WAUSAU         MOCLDY    29  28  96 CALM      29.92S
MOSINEE        FAIR      32  32 100 CALM      29.94S
MARSHFIELD     CLOUDY    31  29  92 CALM      29.92S
STEVENS POINT  FAIR      26  26 100 CALM      29.94S FOG
WAUPACA        FAIR      29  27  90 CALM      29.96R
WAUTOMA        MOCLDY    25  23  92 CALM      29.96R
WISC RAPIDS    MOCLDY    28  25  88 CALM      29.94F FOG
CAMP DOUGLAS   FAIR      26  25  99 CALM      29.93S
$$

WIZ011>013-019>022-031-037>040-048>050-210800-
NORTHEAST WISCONSIN

CITY           SKY/WX    TMP DP  RH WIND       PRES   REMARKS
ANTIGO         CLOUDY    28  28  98 CALM      29.93R
SHAWANO        FAIR      33  30  89 CALM      29.95R
OCONTO         MOCLDY    31  28  90 CALM      29.95R
STURGEON BAY   FAIR      34  30  85 S5        29.97R WCI  30
GREEN BAY      FAIR      33  29  85 S3        29.96R
MANITOWOC      FAIR      28  26  92 CALM      29.97S FOG
APPLETON       FAIR      32  28  86 CALM      29.94R
CLINTONVILLE   FAIR      32  28  86 CALM      29.95R
OSHKOSH        FAIR      32  29  88 CALM      29.95R
$$

WIZ032>034-041-042-053>061-210800-
SOUTHWEST WISCONSIN

CITY           SKY/WX    TMP DP  RH WIND       PRES   REMARKS
LA CROSSE      FOG       26  24  92 S3        29.95S VSB 1
SPARTA         FAIR      24  24  99 CALM      29.95S
VIROQUA        FAIR      35  33  93 S5        29.93S WCI  31
BOSCOBEL       FAIR      27  24  89 CALM      29.96S FOG
PRAIRIE DU CHI FAIR      28  26  93 CALM      29.96R FOG
PLATTEVILLE    CLOUDY    34  34 100 S5        29.95S WCI  30
$$

WIZ056-057-062-063-064-067-068-210800-
SOUTH CENTRAL WISCONSIN

CITY           SKY/WX    TMP DP  RH WIND       PRES   REMARKS
REEDSBURG      FAIR      27  27 100 CALM      29.94S
BARABOO/DELLS  FAIR      30  29  95 CALM      29.94R FOG
LONE ROCK      NOT AVBL
MINERAL POINT  FAIR      34  34 100 S3        29.94S FOG
MADISON        FAIR      29  27  92 CALM      29.96S FOG
MIDDLETON      FAIR      31  31  97 CALM      29.95S
WATERTOWN      FAIR      26  26 100 CALM      29.95S FOG
MONROE         MOCLDY    32  32 100 S6        29.95R FOG     WCI  26
JANESVILLE     CLOUDY    34  34 100 CALM      29.96S FOG
$$

WIZ051-052-058>065-066-070>072-210800-
SOUTHEAST WISCONSIN

CITY           SKY/WX    TMP DP  RH WIND       PRES   REMARKS
MILWAUKEE      FAIR      35  33  92 SW3       29.97S FOG
WAUKESHA       FAIR      32  30  93 CALM      29.97S FOG
MILWAUKEE/TIMM FAIR      32  28  86 CALM      29.98R FOG
RACINE         CLOUDY    38  35  89 S5        29.99S FOG     WCI  34
BURLINGTON     MOCLDY    32  30  94 CALM      29.97S FOG
KENOSHA        CLOUDY    37  34  89 CALM      29.97S FOG
FOND DU LAC    FAIR      29  25  85 CALM      29.95S
SHEBOYGAN      FAIR      28  27  96 CALM      29.95S FOG
WEST BEND      FAIR      28  28 100 CALM      29.95F
JUNEAU         FAIR      31  30  94 CALM      29.96S
$$

LSZ147-162-210800-
LAKE SUPERIOR

STATION/POSITION TIME  TEMP    WIND        PRES    WAVE
                       AIR SEA DIR/SP/G            HT/PER
                 (UTC) (F)     (DEG/KT/KT) (MB)    (FT/S)
DEVILS ISLAND    0600   34     260/  9/  9 1014.2R
SAXON HARBOR     0640   33     190/  5/  7 1013.2S
$$

LMZ867-665-643>646-210800-
LAKE MICHIGAN

STATION/POSITION TIME  TEMP    WIND        PRES    WAVE
                       AIR SEA DIR/SP/G            HT/PER
                 (UTC) (F)     (DEG/KT/KT) (MB)    (FT/S)
NORTHPORT PIER   0640   34      CALM  /  4 1014.2S
KEWAUNEE LAKESHO 0630   33     180/  2/  2 1013.8R
SHEBOYGAN LAKESH 0600   35     180/  4/  4 1014.8F
PORT WASHINGTON  0630   31     250/  3/  3 1015.6S
MILWAUKEE LAKESH 0630   37     220/  6/  6   N/A
KENOSHA   LAKESH 0600   39     200/  5/  6 1015.6
$$

TC  - TEMPERATURE IN CELSIUS
VSB - VISIBILITY IN STATUTE MILES
WCI - WIND CHILL INDEX
HX  - HEAT INDEX





USA.gov is the U.S. government's official web portal to all federal, state and local government web resources and services.